Station: Hindmarsh Island  

  Atmospheric Gas Attenuation - ITU Rec 676-11   ----------------- dB/100km -----------------
Date Time Temp RH % AH g/m3 Dew Point Wind Direction Speed kph Gust kph Barometer mB Rainfall Since 9am 24GHz 47GHz 76GHz 122GHz 134GHz 241GHz
01/09 11:20 22.1 37 7.22 6.7 44 63 1015.3 0 16.3 21.7 31.2 81.4 72.8 249.7
01/09 11:10 21.7 37 7.06 6.4 43 65 1015.2 0 16.0 21.6 30.8 80.4 71.3 244.6
01/09 11:00 21.3 38 7.08 6.4 44 63 1015.3 0 16.0 21.7 31.0 81.0 71.9 246.6
01/09 10:50 21.3 38 7.08 6.4 44 69 1015 0 16.0 21.7 31.0 80.9 71.9 246.6
01/09 10:40 20.5 40 7.12 6.5 44 59 1014.9 0 16.2 22.0 31.4 82.1 73.1 250.6
01/09 10:30 20.5 40 7.12 6.5 43 65 1014.8 0 16.2 22.0 31.4 82.1 73.1 250.5
01/09 10:20 20.4 41 7.25 6.7 43 67 1014.7 0 16.4 22.2 31.9 83.4 74.7 256.1
01/09 10:10 20.2 42 7.34 6.9 44 65 1014.7 0 16.6 22.3 32.3 84.4 75.9 260.3
01/09 10:00 20 43 7.43 7.1 44 61 1014.8 0 16.8 22.5 32.7 85.5 77.1 264.7
01/09 09:50 19.9 44 7.56 7.3 41 63 1015.1 0 17.1 22.7 33.2 86.9 78.8 270.4
01/09 09:40 19.8 44 7.51 7.2 37 59 1015.4 0 17.0 22.7 33.1 86.5 78.3 268.8
01/09 09:30 19.7 45 7.64 7.4 33 54 1015.7 0 17.3 22.9 33.6 87.9 79.9 274.5
01/09 09:20 19.5 46 7.72 7.6 28 41 1016 0 17.5 23.1 34.0 88.9 81.1 278.6
01/09 09:10 18.6 51 8.12 8.3 17 24 1016.2 0 18.3 23.9 35.8 93.8 86.9 298.7
01/09 09:00 18.7 51 8.16 8.4 17 24 1016.4 0 18.4 24.0 35.9 94.1 87.3 300.1
01/09 08:50 18.2 53 8.24 8.5 13 19 1016.8 0 18.6 24.2 36.5 95.6 88.8 305.5
01/09 08:40 17.8 55 8.35 8.6 11 17 1016.8 0 18.9 24.5 37.1 97.1 90.6 311.8
01/09 08:30 17 58 8.39 8.7 13 20 1016.9 0 19.0 24.8 37.6 98.5 92.1 316.7
01/09 08:20 16.5 57 8 8 17 22 1016.8 0 18.2 24.3 36.3 95.2 87.8 301.5
01/09 08:10 15.9 59 7.99 7.9 19 28 1016.9 0 18.2 24.5 36.6 95.8 88.3 303.4
01/09 08:00 15.1 61 7.87 7.6 19 24 1016.8 0 18.0 24.5 36.5 95.5 87.7 301.1
01/09 07:50 14.6 63 7.88 7.6 19 26 1016.8 0 18.0 24.7 36.7 96.2 88.4 303.5
01/09 07:40 14.2 66 8.06 7.9 20 24 1016.8 0 18.4 25.0 37.6 98.6 91.1 313.1
01/09 07:30 13.2 68 7.81 7.4 19 26 1016.7 0 17.9 24.9 37.1 97.2 89.1 305.7
01/09 07:20 13.2 68 7.81 7.4 19 24 1016.8 0 17.9 24.9 37.1 97.2 89.1 305.7
01/09 07:10 13.2 67 7.69 7.2 17 24 1017 0 17.7 24.7 36.6 96.0 87.5 300.3
01/09 07:00 12.5 69 7.59 7 17 22 1017.2 0 17.5 24.8 36.6 95.8 87.0 298.5
01/09 06:50 12.8 66 7.39 6.6 17 22 1017.3 0 17.0 24.4 35.7 93.3 84.1 288.3
01/09 06:40 12.4 69 7.54 6.9 19 22 1017.4 0 17.4 24.7 36.4 95.4 86.5 296.6
01/09 06:30 12.7 67 7.46 6.7 19 20 1017.5 0 17.2 24.5 36.0 94.2 85.1 291.9
01/09 06:20 13.4 66 7.67 7.2 19 26 1017.5 0 17.6 24.7 36.5 95.6 87.1 298.8
01/09 06:10 14.4 61 7.54 7 20 26 1017.4 0 17.3 24.2 35.5 93.0 84.3 289.2
01/09 06:00 14.2 61 7.45 6.8 20 26 1017.5 0 17.1 24.1 35.3 92.3 83.4 286.0
01/09 05:50 13.5 63 7.37 6.6 22 30 1017.5 0 17.0 24.2 35.3 92.3 83.1 284.9
01/09 05:40 12.7 68 7.57 7 22 30 1017.5 0 17.4 24.7 36.4 95.4 86.6 296.9
01/09 05:30 10.9 76 7.56 6.8 20 28 1017.6 0 17.5 25.2 37.2 97.5 88.5 303.3
01/09 05:20 11 79 7.91 7.5 24 28 1017.7 0 18.2 25.7 38.6 101.1 93.0 319.3
01/09 05:10 10.5 79 7.66 7 24 28 1017.8 0 17.7 25.5 37.8 99.1 90.3 309.6
01/09 05:00 10.3 82 7.85 7.4 20 26 1018 0 18.1 25.9 38.7 101.4 93.1 319.4
01/09 04:50 10.4 81 7.81 7.3 20 26 1018.2 0 18.1 25.8 38.5 100.9 92.4 317.1
01/09 04:40 10.5 80 7.76 7.2 20 24 1018.2 0 17.9 25.7 38.2 100.2 91.6 314.4
01/09 04:30 10.6 79 7.71 7.1 19 20 1018.3 0 17.8 25.6 38.0 99.5 90.9 311.6
01/09 04:20 10.5 78 7.57 6.8 17 20 1018.3 0 17.5 25.4 37.5 98.1 89.1 305.5
01/09 04:10 10.5 78 7.57 6.8 19 22 1018.4 0 17.5 25.4 37.5 98.1 89.1 305.5
01/09 04:00 10.3 79 7.57 6.8 17 20 1018.5 0 17.5 25.4 37.6 98.4 89.4 306.3
01/09 03:50 10.4 78 7.52 6.7 17 19 1018.6 0 17.4 25.3 37.3 97.7 88.6 303.6
01/09 03:40 10.5 77 7.47 6.6 17 19 1018.7 0 17.3 25.2 37.1 97.1 87.8 300.9
01/09 03:30 10.4 79 7.62 6.9 17 20 1018.8 0 17.6 25.5 37.7 98.8 89.9 308.3
01/09 03:20 10.1 79 7.47 6.6 15 17 1019.1 0 17.3 25.3 37.3 97.6 88.3 302.5
01/09 03:10 10.1 78 7.38 6.4 15 17 1019.2 0 17.1 25.2 36.9 96.7 87.1 298.4
01/09 03:00 10.3 79 7.57 6.8 15 17 1019.3 0 17.5 25.5 37.6 98.5 89.4 306.5
01/09 02:50 10.5 79 7.66 7 17 19 1019.5 0 17.7 25.6 37.9 99.2 90.4 310.0
01/09 02:40 10.4 77 7.42 6.5 15 17 1019.7 0 17.2 25.2 37.0 96.8 87.3 299.2
01/09 02:30 10.7 74 7.27 6.3 15 17 1019.9 0 16.9 24.9 36.2 94.8 85.0 291.2
01/09 02:20 11.1 74 7.46 6.6 15 19 1020 0 17.3 25.1 36.8 96.4 87.1 298.5
01/09 02:10 11.5 74 7.64 7 15 19 1020.2 0 17.6 25.3 37.4 97.8 89.0 305.3
01/09 02:00 11.5 72 7.44 6.6 17 20 1020.4 0 17.2 24.9 36.6 95.7 86.4 296.1
01/09 01:50 11.3 73 7.45 6.6 15 19 1020.5 0 17.2 25.0 36.7 96.1 86.8 297.4
01/09 01:40 11.5 72 7.44 6.6 17 20 1020.7 0 17.2 25.0 36.6 95.7 86.4 296.2
01/09 01:30 11.8 75 7.89 7.5 17 24 1020.9 0 18.2 25.6 38.3 100.2 92.1 315.9
01/09 01:20 11.4 76 7.8 7.3 17 20 1020.9 0 18.0 25.6 38.1 99.7 91.3 313.3
01/09 01:10 11.4 74 7.6 6.9 17 20 1021.2 0 17.6 25.3 37.3 97.6 88.7 304.1
01/09 01:00 11.2 74 7.5 6.7 17 20 1021.3 0 17.4 25.2 37.0 96.8 87.6 300.3
01/09 00:50 11.1 76 7.66 7 17 20 1021.5 0 17.7 25.5 37.7 98.7 89.9 308.1
01/09 00:40 11.2 74 7.5 6.7 17 20 1021.7 0 17.4 25.2 37.0 96.9 87.6 300.4
01/09 00:30 11.3 73 7.45 6.6 17 20 1021.8 0 17.2 25.1 36.8 96.2 86.9 297.7
01/09 00:20 11.9 72 7.63 7 17 20 1022 0 17.6 25.2 37.2 97.4 88.6 303.8
01/09 00:09 11.7 73 7.64 7 17 19 1022 0 17.6 25.3 37.4 97.8 88.9 305.0
01/09 00:00 12.2 69 7.45 6.7 19 26 1022.1 0 17.2 24.8 36.4 95.1 85.9 294.4
31/08 23:50 12.4 69 7.54 6.9 17 26 1022.1 0 17.4 24.9 36.6 95.9 86.9 297.8
31/08 23:40 13 68 7.71 7.2 20 26 1022.5 0 17.7 25.0 37.0 97.0 88.4 303.3
31/08 23:30 11.8 75 7.89 7.5 17 20 1022.5 0 18.2 25.7 38.3 100.4 92.2 316.3
31/08 23:20 12 77 8.21 8.1 17 20 1022.8 0 18.8 26.1 39.5 103.6 96.2 330.6
31/08 23:10 11.7 82 8.58 8.7 17 20 1023 0 19.6 26.9 41.2 108.1 101.7 349.5
31/08 23:00 11.6 83 8.63 8.8 15 19 1023.2 0 19.8 27.0 41.5 108.8 102.5 352.4
31/08 22:50 11.7 87 9.1 9.6 15 17 1023.4 0 20.8 27.8 43.4 114.0 108.9 374.7
31/08 22:40 12.4 84 9.18 9.8 17 19 1023.5 0 20.9 27.7 43.4 113.9 109.0 375.3
31/08 22:30 11.7 87 9.1 9.6 19 20 1023.5 0 20.8 27.8 43.4 114.0 108.9 374.8
31/08 22:20 11.4 88 9.03 9.5 17 19 1023.6 0 20.6 27.7 43.3 113.6 108.3 372.8
31/08 22:10 11.6 88 9.15 9.7 15 17 1023.8 0 20.9 27.9 43.7 114.7 109.7 377.8
31/08 22:00 11.9 88 9.32 10 15 17 1023.9 0 21.2 28.1 44.3 116.2 111.7 384.7
31/08 21:50 11.8 88 9.26 9.9 13 15 1023.9 0 21.1 28.0 44.1 115.7 111.0 382.2
31/08 21:40 12 87 9.27 9.9 13 15 1024.1 0 21.1 28.0 44.0 115.5 110.9 381.8
31/08 21:30 12.3 87 9.45 10.2 11 15 1024.1 0 21.5 28.2 44.6 117.1 113.0 389.1
31/08 21:20 12.7 89 9.91 10.9 13 15 1024.2 0 22.4 28.9 46.4 121.8 118.8 409.7
31/08 21:10 12.7 89 9.91 10.9 13 17 1024.1 0 22.4 28.8 46.4 121.8 118.8 409.7
31/08 21:00 12.8 90 10.08 11.2 15 17 1024.2 0 22.8 29.1 47.0 123.6 121.1 417.6
31/08 20:50 12.8 89 9.97 11 11 13 1024.4 0 22.6 28.9 46.6 122.4 119.6 412.2
31/08 20:40 13 90 10.21 11.4 11 11 1024.5 0 23.1 29.3 47.5 124.8 122.7 423.1
31/08 20:30 13.1 91 10.38 11.7 11 13 1024.6 0 23.4 29.6 48.2 126.6 124.9 431.1
31/08 20:20 13.4 91 10.58 12 9 11 1024.6 0 23.8 29.8 48.9 128.5 127.3 439.4
31/08 20:10 13.5 90 10.53 11.9 9 13 1024.7 0 23.7 29.7 48.6 127.7 126.4 436.3
31/08 20:00 13.9 90 10.79 12.3 6 7 1024.7 0 24.3 30.0 49.5 130.1 129.5 447.1
31/08 19:50 13.7 89 10.54 11.9 6 6 1024.7 0 23.7 29.6 48.5 127.5 126.2 435.7
31/08 19:40 14.2 88 10.75 12.2 7 7 1024.8 0 24.2 29.8 49.1 129.1 128.4 443.4
31/08 19:30 14.4 87 10.75 12.3 7 7 1024.9 0 24.1 29.8 49.0 128.8 128.1 442.3
31/08 19:20 14.5 86 10.7 12.2 7 7 1025 0 24.0 29.7 48.7 128.1 127.2 439.2
31/08 19:10 14.7 85 10.7 12.2 6 7 1025 0 24.0 29.6 48.6 127.8 126.9 438.1
31/08 19:00 14.6 84 10.51 11.9 9 9 1025 0 23.6 29.3 47.8 125.7 124.4 429.3
31/08 18:50 14.9 85 10.83 12.4 6 9 1025 0 24.3 29.7 49.0 128.9 128.4 443.4

Last Refresh: 01-Sep-2026 11:30:35

Bureau of Meteorology